{"data":{"norad_id":68772,"epoch":"2026-09-18T08:26:19.704480Z","epoch_age_seconds":225554,"freshness":"STALE","line1":"1 68772U 26086G   26261.35161695  .00010077  00000+0  31407-3 0  9997","line2":"2 68772  97.2842 296.7769 0003006  98.9519 261.2065 15.33440482 23359","mean_motion":15.33440482,"eccentricity":0.0003006,"inclination_deg":97.2842,"raan_deg":296.7769,"arg_perigee_deg":98.9519,"mean_anomaly_deg":261.2065,"bstar":0.00031407,"rev_number":2335,"period_min":93.906481334174,"perigee_km":463.49940259921,"apogee_km":467.61383120169,"semimajor_km":6843.6936169005,"source":"CELESTRAK","updated_at":"2026-09-20T09:00:43.998459Z"}}